DW5852 Weather Reports


Display with metric or nautical units.
time (UTC)temp
F
wind
direction
speed
MPH
gust
MPH
rain 1hr
in
rain 24hr
in
rain mn
in
humidity
%
barometer
mb
20220516050744 68 181 5.0 9.0 0.00 0.00 0.00 24 1037.9
20220516050239 68 229 2.0 5.0 0.00 0.00 0.00 23 1037.8
20220516045740 68 197 2.0 8.0 0.00 0.00 0.00 23 1037.8
20220516045241 68 193 4.0 7.0 0.00 0.00 0.00 23 1037.8
20220516044744 68 212 2.0 6.0 0.00 0.00 0.00 23 1037.7
20220516044239 68 181 4.0 5.0 0.00 0.00 0.00 22 1037.8
20220516043739 68 229 2.0 5.0 0.00 0.00 0.00 21 1037.8
20220516043239 68 219 3.0 6.0 0.00 0.00 0.00 21 1037.8
20220516042739 68 238 1.0 7.0 0.00 0.00 0.00 20 1037.9
20220516042243 68 245 6.0 6.0 0.00 0.00 0.00 20 1037.7
20220516041831 68 232 3.0 5.0 0.00 0.00 0.00 19 1037.6
20220516040712 68 236 2.0 3.0 0.00 0.00 0.00 16 1037.5
20220516040211 68 221 1.0 6.0 0.00 0.00 0.00 13 1037.4
20220516035728 69 197 2.0 5.0 0.00 0.00 0.00 10 1037.2
20220516035212 69 151 3.0 6.0 0.00 0.00 0.00 9 1037.2
20220516034716 69 146 1.0 7.0 0.00 0.00 0.00 8 1037.1
20220516034211 69 84 3.0 9.0 0.00 0.00 0.00 8 1037.1
20220516033711 70 243 1.0 3.0 0.00 0.00 0.00 8 1036.7
20220516033211 70 256 2.0 5.0 0.00 0.00 0.00 8 1036.6
20220516032712 70 243 5.0 5.0 0.00 0.00 0.00 8 1036.6
20220516032212 70 255 5.0 5.0 0.00 0.00 0.00 8 1036.6
20220516031712 70 267 3.0 7.0 0.00 0.00 0.00 8 1036.6
20220516031403 70 246 3.0 6.0 0.00 0.00 0.00 8 1036.5
20220516030751 70 262 2.0 5.0 0.00 0.00 0.00 7 1036.5
20220516030252 70 250 4.0 4.0 0.00 0.00 0.00 8 1036.5
20220516025938 70 269 1.0 4.0 0.00 0.00 0.00 8 1036.4
20220516025305 70 271 2.0 4.0 0.00 0.00 0.00 8 1036.3
20220516024802 71 247 4.0 5.0 0.00 0.00 0.00 7 1036.3
20220516024308 71 260 3.0 4.0 0.00 0.00 0.00 7 1036.3
20220516023802 71 244 2.0 4.0 0.00 0.00 0.00 7 1036.2
20220516023302 71 271 4.0 7.0 0.00 0.00 0.00 6 1036.2
20220516022812 71 257 3.0 5.0 0.00 0.00 0.00 6 1036.2
20220516022305 71 233 4.0 5.0 0.00 0.00 0.00 6 1036.2
20220516021809 72 257 2.0 2.0 0.00 0.00 0.00 6 1036.1
20220516021302 73 252 1.0 3.0 0.00 0.00 0.00 6 1036.0
20220516020802 73 259 3.0 4.0 0.00 0.00 0.00 5 1036.0
20220516020303 74 212 1.0 5.0 0.00 0.00 0.00 5 1035.9
20220516015807 74 191 5.0 5.0 0.00 0.00 0.00 5 1035.8
20220516015307 74 193 1.0 5.0 0.00 0.00 0.00 5 1035.8
20220516014802 75 163 5.0 10.0 0.00 0.00 0.00 5 1035.6
20220516014302 75 180 3.0 10.0 0.00 0.00 0.00 5 1035.5
20220516013804 76 163 6.0 10.0 0.00 0.00 0.00 4 1035.5
20220516013313 76 135 4.0 9.0 0.00 0.00 0.00 5 1035.4
20220516012807 77 179 4.0 10.0 0.00 0.00 0.00 5 1035.3
20220516012302 77 193 5.0 14.0 0.00 0.00 0.00 5 1035.2
20220516011232 78 153 3.0 9.0 0.00 0.00 0.00 4 1035.0
20220516010748 78 187 4.0 11.0 0.00 0.00 0.00 5 1034.9
20220516010242 77 198 7.0 13.0 0.00 0.00 0.00 4 1035.0
20220516005732 77 157 5.0 9.0 0.00 0.00 0.00 5 1034.9
20220516005233 77 194 5.0 15.0 0.00 0.00 0.00 5 1034.9
20220516004732 77 101 8.0 14.0 0.00 0.00 0.00 5 1034.8
20220516003833 77 143 4.0 9.0 0.00 0.00 0.00 5 1034.6
20220516003250 78 168 7.0 11.0 0.00 0.00 0.00 5 1034.5
20220516002751 78 145 4.0 8.0 0.00 0.00 0.00 5 1034.5
20220516002254 79 156 7.0 12.0 0.00 0.00 0.00 5 1034.3
20220516001750 79 145 0.0 9.0 0.00 0.00 0.00 5 1034.3
20220516001251 80 200 2.0 14.0 0.00 0.00 0.00 5 1034.3
20220516000750 80 160 1.0 8.0 0.00 0.00 0.00 5 1034.2
20220516000250 80 246 4.0 11.0 0.00 0.00 0.00 5 1034.1
20220515235757 80 177 5.0 12.0 0.00 0.00 0.00 5 1034.0
20220515234827 80 143 7.0 11.0 0.00 0.00 0.00 4 1033.9
20220515234250 82 174 6.0 13.0 0.00 0.00 0.00 4 1034.0
20220515233835 83 153 8.0 12.0 0.00 0.00 0.00 5 1033.7
20220515233249 83 132 3.0 10.0 0.00 0.00 0.00 5 1033.7
20220515232751 83 193 7.0 11.0 0.00 0.00 0.00 5 1033.6
20220515232254 83 194 5.0 13.0 0.00 0.00 0.00 6 1033.6
20220515231751 82 134 9.0 12.0 0.00 0.00 0.00 5 1033.5
20220515230235 81 181 7.0 12.0 0.00 0.00 0.00 6 1033.3
20220515225709 81 202 4.0 16.0 0.00 0.00 0.00 6 1033.3
20220515225209 81 173 6.0 11.0 0.00 0.00 0.00 6 1033.3
20220515224856 81 155 7.0 8.0 0.00 0.00 0.00 6 1033.3
20220515224253 82 157 1.0 8.0 0.00 0.00 0.00 7 1033.2
20220515223743 83 191 9.0 12.0 0.00 0.00 0.00 7 1033.0
20220515223240 83 186 4.0 9.0 0.00 0.00 0.00 8 1033.0
20220515222740 82 254 2.0 9.0 0.00 0.00 0.00 8 1033.1
20220515222245 81 180 1.0 6.0 0.00 0.00 0.00 8 1033.0
20220515221743 81 328 5.0 11.0 0.00 0.00 0.00 7 1033.0
20220515221239 81 155 7.0 11.0 0.00 0.00 0.00 8 1032.9
20220515220930 82 181 8.0 10.0 0.00 0.00 0.00 8 1032.8
20220515215726 83 210 1.0 5.0 0.00 0.00 0.00 8 1032.8
20220515215221 83 225 0.0 4.0 0.00 0.00 0.00 8 1032.8
20220515214736 83 271 0.0 6.0 0.00 0.00 0.00 7 1032.8
20220515214233 83 74 2.0 9.0 0.00 0.00 0.00 8 1032.8
20220515213723 83 207 3.0 12.0 0.00 0.00 0.00 8 1032.8
20220515213226 83 256 1.0 9.0 0.00 0.00 0.00 8 1032.8
20220515212727 83 64 2.0 6.0 0.00 0.00 0.00 8 1032.9
20220515212221 82 77 7.0 11.0 0.00 0.00 0.00 7 1032.8
20220515211726 82 143 3.0 14.0 0.00 0.00 0.00 8 1032.8
20220515211221 82 195 10.0 11.0 0.00 0.00 0.00 8 1032.8
20220515210722 83 74 7.0 11.0 0.00 0.00 0.00 7 1032.7
20220515210221 82 194 0.0 4.0 0.00 0.00 0.00 8 1032.7
20220515205726 81 285 3.0 9.0 0.00 0.00 0.00 8 1032.7
20220515205228 83 210 2.0 7.0 0.00 0.00 0.00 9 1032.9
20220515204913 83 174 3.0 9.0 0.00 0.00 0.00 8 1032.9
20220515204247 82 140 0.0 7.0 0.00 0.00 0.00 8 1032.7
20220515203839 83 284 3.0 8.0 0.00 0.00 0.00 8 1032.8
20220515203302 83 162 1.0 6.0 0.00 0.00 0.00 8 1032.8
20220515202752 82 355 3.0 5.0 0.00 0.00 0.00 9 1032.7
20220515202252 81 355 1.0 4.0 0.00 0.00 0.00 8 1032.7
20220515201838 81 304 2.0 8.0 0.00 0.00 0.00 8 1032.6
20220515200754 80 347 1.0 9.0 0.00 0.00 0.00 8 1032.6
20220515200249 79 74 4.0 5.0 0.00 0.00 0.00 9 1032.7
20220515195745 78 132 0.0 10.0 0.00 0.00 0.00 9 1032.7
20220515195319 78 64 4.0 7.0 0.00 0.00 0.00 9 1032.7
20220515194836 77 113 5.0 10.0 0.00 0.00 0.00 9 1032.7
20220515194247 77 77 2.0 8.0 0.00 0.00 0.00 9 1032.7
20220515193740 77 67 6.0 7.0 0.00 0.00 0.00 10 1032.8
20220515193244 77 66 3.0 12.0 0.00 0.00 0.00 9 1032.8
20220515192741 78 36 13.0 13.0 0.00 0.00 0.00 9 1032.8
20220515192241 78 115 5.0 6.0 0.00 0.00 0.00 9 1032.8
20220515191740 77 101 5.0 8.0 0.00 0.00 0.00 9 1032.9
20220515191306 77 56 6.0 7.0 0.00 0.00 0.00 9 1032.9
20220515190746 76 79 3.0 9.0 0.00 0.00 0.00 10 1032.9
20220515190245 75 20 9.0 9.0 0.00 0.00 0.00 10 1033.0
20220515184748 75 64 10.0 15.0 0.00 0.00 0.00 10 1033.0
20220515183257 76 86 2.0 12.0 0.00 0.00 0.00 10 1033.1
20220515182801 77 151 1.0 8.0 0.00 0.00 0.00 10 1033.1
20220515182332 76 60 3.0 9.0 0.00 0.00 0.00 10 1033.1
20220515181839 76 49 5.0 9.0 0.00 0.00 0.00 10 1033.1
20220515181301 76 359 5.0 14.0 0.00 0.00 0.00 10 1033.2
20220515180225 76 359 5.0 15.0 0.00 0.00 0.00 10 1033.1
20220515175728 76 45 12.0 12.0 0.00 0.00 0.00 10 1033.2
20220515175223 76 13 12.0 17.0 0.00 0.00 0.00 10 1033.0
20220515174910 75 56 7.0 18.0 0.00 0.00 0.00 10 1033.2
20220515174238 75 84 6.0 11.0 0.00 0.00 0.00 11 1033.1
20220515173243 75 62 15.0 19.0 0.00 0.00 0.00 11 1033.2
20220515172739 74 79 8.0 19.0 0.00 0.00 0.00 12 1033.2
20220515172239 74 93 7.0 15.0 0.00 0.00 0.00 11 1033.1
20220515171828 74 61 8.0 21.0 0.00 0.00 0.00 11 1033.2
20220515171238 74 79 4.0 13.0 0.00 0.00 0.00 11 1033.3
20220515170742 74 355 4.0 16.0 0.00 0.00 0.00 11 1033.3
20220515170242 74 45 5.0 13.0 0.00 0.00 0.00 12 1033.2
20220515165743 74 55 5.0 16.0 0.00 0.00 0.00 11 1033.2
20220515165237 74 101 11.0 15.0 0.00 0.00 0.00 12 1033.1
20220515164829 73 142 0.0 13.0 0.00 0.00 0.00 12 1033.1
20220515164222 73 13 6.0 17.0 0.00 0.00 0.00 12 1033.1
20220515163722 73 25 3.0 16.0 0.00 0.00 0.00 12 1033.1
20220515163229 72 43 4.0 14.0 0.00 0.00 0.00 12 1033.1
20220515162724 72 56 6.0 14.0 0.00 0.00 0.00 12 1033.1
20220515162227 72 65 7.0 14.0 0.00 0.00 0.00 12 1033.1
20220515161914 71 41 7.0 12.0 0.00 0.00 0.00 12 1033.1
20220515161257 71 202 3.0 16.0 0.00 0.00 0.00 13 1033.2
20220515160757 71 155 5.0 14.0 0.00 0.00 0.00 12 1033.1
20220515160257 71 107 6.0 16.0 0.00 0.00 0.00 12 1033.0
20220515155801 71 50 9.0 13.0 0.00 0.00 0.00 12 1033.0
20220515154745 70 173 2.0 12.0 0.00 0.00 0.00 12 1033.0
20220515154247 70 58 5.0 11.0 0.00 0.00 0.00 12 1032.9
20220515153750 70 23 12.0 12.0 0.00 0.00 0.00 12 1032.9
20220515153250 69 354 5.0 14.0 0.00 0.00 0.00 12 1032.9
20220515152750 70 52 15.0 15.0 0.00 0.00 0.00 12 1032.8
20220515152250 69 19 6.0 9.0 0.00 0.00 0.00 13 1032.9
20220515151750 69 68 2.0 11.0 0.00 0.00 0.00 13 1032.9
20220515151246 68 43 6.0 11.0 0.00 0.00 0.00 13 1032.8
20220515150833 68 9 2.0 9.0 0.00 0.00 0.00 13 1032.8
20220515150327 67 314 2.0 11.0 0.00 0.00 0.00 13 1032.8
20220515145756 67 72 10.0 11.0 0.00 0.00 0.00 13 1032.8
20220515145311 67 47 1.0 11.0 0.00 0.00 0.00 14 1032.8
20220515144216 66 41 9.0 13.0 0.00 0.00 0.00 14 1032.9
20220515143908 66 76 4.0 7.0 0.00 0.00 0.00 14 1033.0
20220515143244 65 63 7.0 10.0 0.00 0.00 0.00 14 1033.0
20220515142749 65 115 0.0 10.0 0.00 0.00 0.00 14 1032.9
20220515142336 64 350 2.0 6.0 0.00 0.00 0.00 15 1032.9
20220515141713 64 47 4.0 8.0 0.00 0.00 0.00 15 1032.8
20220515141214 63 82 5.0 7.0 0.00 0.00 0.00 15 1032.8
20220515140805 63 15 1.0 5.0 0.00 0.00 0.00 16 1032.8
20220515140205 63 90 0.0 6.0 0.00 0.00 0.00 15 1032.7
20220515135712 62 86 1.0 4.0 0.00 0.00 0.00 16 1032.8
20220515135205 61 85 1.0 4.0 0.00 0.00 0.00 16 1032.7
20220515134705 61 38 1.0 4.0 0.00 0.00 0.00 16 1032.8
20220515134241 60 18 1.0 5.0 0.00 0.00 0.00 16 1032.9
20220515133721 60 103 1.0 5.0 0.00 0.00 0.00 16 1032.9
20220515133207 60 60 0.0 3.0 0.00 0.00 0.00 16 1033.0
20220515132739 59 34 3.0 4.0 0.00 0.00 0.00 16 1033.0
20220515132212 59 41 3.0 4.0 0.00 0.00 0.00 16 1033.0
20220515131717 59 50 0.0 2.0 0.00 0.00 0.00 16 1033.1
20220515131210 60 53 0.0 2.0 0.00 0.00 0.00 16 1033.0
20220515130707 60 53 0.0 2.0 0.00 0.00 0.00 16 1033.1
20220515130210 61 90 0.0 2.0 0.00 0.00 0.00 15 1033.2
20220515125717 60 104 0.0 0.0 0.00 0.00 0.00 18 1033.1
20220515125220 59 104 0.0 0.0 0.00 0.00 0.00 18 1033.2
20220515124705 59 104 0.0 0.0 0.00 0.00 0.00 18 1033.1
20220515124357 59 104 0.0 0.0 0.00 0.00 0.00 18 1033.2
20220515123826 59 104 0.0 1.0 0.00 0.00 0.00 18 1033.2
20220515123259 58 104 0.0 0.0 0.00 0.00 0.00 18 1033.1
20220515122846 58 104 0.0 2.0 0.00 0.00 0.00 17 1033.1
20220515121759 57 77 0.0 2.0 0.00 0.00 0.00 18 1033.1
20220515121254 56 113 0.0 1.0 0.00 0.00 0.00 19 1033.1
20220515120755 56 205 0.0 2.0 0.00 0.00 0.00 19 1033.0
20220515120259 57 194 0.0 2.0 0.00 0.00 0.00 19 1033.1
20220515115825 57 280 0.0 5.0 0.00 0.00 0.00 18 1033.0
20220515115259 56 352 2.0 5.0 0.00 0.00 0.00 19 1033.1
20220515114759 57 337 0.0 1.0 0.00 0.00 0.00 18 1033.2
20220515114255 57 337 1.0 2.0 0.00 0.00 0.00 17 1033.2
20220515113757 57 27 1.0 3.0 0.00 0.00 0.00 17 1033.3
20220515113259 57 349 0.0 1.0 0.00 0.00 0.00 16 1033.4
20220515112754 57 67 0.0 1.0 0.00 0.00 0.00 16 1033.3
20220515112255 58 68 0.0 1.0 0.00 0.00 0.00 16 1033.4
20220515111756 57 263 0.0 0.0 0.00 0.00 0.00 16 1033.4
20220515111259 57 263 0.0 1.0 0.00 0.00 0.00 16 1033.5
20220515110756 57 263 0.0 1.0 0.00 0.00 0.00 16 1033.5
20220515110255 57 262 0.0 0.0 0.00 0.00 0.00 16 1033.5
20220515105755 58 262 0.0 1.0 0.00 0.00 0.00 15 1033.6
20220515105259 58 262 0.0 1.0 0.00 0.00 0.00 16 1033.6
20220515104754 57 262 1.0 1.0 0.00 0.00 0.00 16 1033.6
20220515104254 57 256 0.0 1.0 0.00 0.00 0.00 17 1033.6
20220515103755 57 173 0.0 0.0 0.00 0.00 0.00 17 1033.7
20220515103256 57 173 0.0 1.0 0.00 0.00 0.00 17 1033.9
20220515102754 58 277 0.0 1.0 0.00 0.00 0.00 16 1033.9
20220515102254 57 241 0.0 1.0 0.00 0.00 0.00 16 1034.0
20220515101824 58 241 0.0 2.0 0.00 0.00 0.00 16 1034.1
20220515101254 58 245 0.0 3.0 0.00 0.00 0.00 16 1034.2
20220515100759 57 240 2.0 3.0 0.00 0.00 0.00 17 1034.3
20220515100255 56 263 2.0 2.0 0.00 0.00 0.00 17 1034.4
20220515095823 56 242 0.0 3.0 0.00 0.00 0.00 17 1034.4
20220515095254 57 240 0.0 2.0 0.00 0.00 0.00 16 1034.5
20220515094754 57 232 0.0 1.0 0.00 0.00 0.00 16 1034.6
20220515094255 57 268 0.0 0.0 0.00 0.00 0.00 16 1034.6
20220515093754 57 268 0.0 1.0 0.00 0.00 0.00 17 1034.7
20220515093255 57 242 0.0 0.0 0.00 0.00 0.00 17 1034.7
20220515092754 57 242 0.0 1.0 0.00 0.00 0.00 16 1034.7
20220515092259 57 241 0.0 0.0 0.00 0.00 0.00 16 1034.9
20220515091811 56 242 0.0 0.0 0.00 0.00 0.00 17 1034.9
20220515091330 57 242 0.0 0.0 0.00 0.00 0.00 17 1035.0
20220515090845 57 241 0.0 0.0 0.00 0.00 0.00 17 1035.1
20220515090259 57 242 0.0 0.0 0.00 0.00 0.00 16 1035.0
20220515085759 57 241 0.0 1.0 0.00 0.00 0.00 16 1035.1
20220515085254 58 241 0.0 0.0 0.00 0.00 0.00 16 1035.2
20220515084754 57 242 0.0 1.0 0.00 0.00 0.00 16 1035.2
20220515084255 57 242 0.0 1.0 0.00 0.00 0.00 17 1035.3
20220515083754 57 242 0.0 1.0 0.00 0.00 0.00 16 1035.3
20220515083256 58 242 0.0 1.0 0.00 0.00 0.00 16 1035.3
20220515082759 58 273 1.0 1.0 0.00 0.00 0.00 15 1035.4
20220515082254 58 249 0.0 0.0 0.00 0.00 0.00 16 1035.5
20220515081754 59 249 0.0 0.0 0.00 0.00 0.00 15 1035.5
20220515081254 59 250 0.0 0.0 0.00 0.00 0.00 15 1035.6
20220515080800 59 249 0.0 0.0 0.00 0.00 0.00 15 1035.8
20220515080255 58 264 0.0 0.0 0.00 0.00 0.00 15 1035.8
20220515075800 59 145 0.0 0.0 0.00 0.00 0.00 15 1035.8
20220515075255 60 142 0.0 0.0 0.00 0.00 0.00 14 1035.8
20220515074755 60 143 0.0 1.0 0.00 0.00 0.00 14 1035.9
20220515074255 60 160 0.0 1.0 0.00 0.00 0.00 14 1035.9
20220515073755 60 243 0.0 1.0 0.00 0.00 0.00 13 1035.9
20220515073259 61 243 0.0 0.0 0.00 0.00 0.00 13 1035.9
20220515072755 63 9 0.0 3.0 0.00 0.00 0.00 12 1035.9
20220515072346 64 319 2.0 3.0 0.00 0.00 0.00 12 1035.9
20220515071731 64 30 2.0 6.0 0.00 0.00 0.00 12 1035.9
20220515071232 63 34 4.0 4.0 0.00 0.00 0.00 12 1036.0
20220515070732 64 55 0.0 2.0 0.00 0.00 0.00 12 1036.0
20220515070232 64 27 1.0 2.0 0.00 0.00 0.00 12 1036.1
20220515065730 64 8 1.0 5.0 0.00 0.00 0.00 12 1036.1
20220515065243 63 1 1.0 5.0 0.00 0.00 0.00 12 1036.1
20220515064730 62 97 0.0 1.0 0.00 0.00 0.00 13 1036.1
20220515064232 63 98 1.0 2.0 0.00 0.00 0.00 12 1036.0
20220515063730 63 113 1.0 2.0 0.00 0.00 0.00 12 1036.1
20220515063230 64 107 0.0 3.0 0.00 0.00 0.00 12 1036.1
20220515062730 64 156 1.0 2.0 0.00 0.00 0.00 11 1036.1
20220515062232 65 194 0.0 3.0 0.00 0.00 0.00 11 1036.1
20220515061732 65 212 0.0 4.0 0.00 0.00 0.00 11 1036.1
20220515061232 65 262 1.0 1.0 0.00 0.00 0.00 11 1036.1
20220515060735 66 242 0.0 3.0 0.00 0.00 0.00 11 1036.1
20220515060232 66 201 0.0 2.0 0.00 0.00 0.00 11 1036.2
20220515055735 66 250 1.0 4.0 0.00 0.00 0.00 10 1036.1
20220515055235 67 1 0.0 6.0 0.00 0.00 0.00 11 1036.0
20220515054730 67 84 3.0 14.0 0.00 0.00 0.00 11 1036.1
20220515054231 66 321 1.0 6.0 0.00 0.00 0.00 11 1036.1
20220515053733 67 217 0.0 7.0 0.00 0.00 0.00 10 1036.1
20220515053230 67 256 0.0 8.0 0.00 0.00 0.00 10 1036.2
20220515052735 67 259 3.0 6.0 0.00 0.00 0.00 10 1036.1
20220515052231 67 218 3.0 11.0 0.00 0.00 0.00 10 1036.1
20220515051731 67 255 4.0 18.0 0.00 0.00 0.00 10 1036.2
20220515051235 67 295 4.0 10.0 0.00 0.00 0.00 10 1036.2